| time (UTC) | temp C | wind direction | speed KPH | gust KPH | rain 1hr cm | rain 24hr cm | rain mn cm | humidity % | barometer mb |
| 20260905185550 | 23 | 57 | 1.6 | 11.3 | 0.00 | 0.00 | 0.00 | 62 | 1009.6 |
| 20260905185050 | 23 | 80 | 3.2 | 11.3 | 0.00 | 0.00 | 0.00 | 64 | 1009.4 |
| 20260905184555 | 23 | 187 | 1.6 | 8.0 | 0.00 | 0.00 | 0.00 | 65 | 1009.5 |
| 20260905184053 | 23 | 95 | 1.6 | 8.0 | 0.00 | 0.00 | 0.00 | 63 | 1009.6 |
| 20260905183548 | 23 | 124 | 3.2 | 8.0 | 0.00 | 0.00 | 0.00 | 64 | 1009.4 |
| 20260905183048 | 23 | 75 | 3.2 | 9.7 | 0.00 | 0.00 | 0.00 | 63 | 1009.4 |
| 20260905182547 | 23 | 124 | 3.2 | 9.7 | 0.00 | 0.00 | 0.00 | 67 | 1009.4 |
| 20260905182047 | 23 | 105 | 3.2 | 12.9 | 0.00 | 0.00 | 0.00 | 67 | 1009.5 |
| 20260905181549 | 23 | 324 | 3.2 | 12.9 | 0.00 | 0.00 | 0.00 | 64 | 1009.6 |
| 20260905181046 | 23 | 61 | 3.2 | 11.3 | 0.00 | 0.00 | 0.00 | 65 | 1009.5 |
| 20260905180547 | 23 | 81 | 1.6 | 11.3 | 0.00 | 0.00 | 0.00 | 67 | 1009.5 |
| 20260905180045 | 23 | 81 | 1.6 | 11.3 | 0.00 | 0.00 | 0.00 | 66 | 1009.6 |
| 20260905175544 | 23 | 70 | 3.2 | 11.3 | 0.00 | 0.00 | 0.00 | 65 | 1009.6 |
| 20260905175043 | 23 | 71 | 3.2 | 11.3 | 0.00 | 0.00 | 0.00 | 66 | 1009.5 |
| 20260905174542 | 23 | 110 | 1.6 | 11.3 | 0.00 | 0.00 | 0.00 | 65 | 1009.6 |
| 20260905174042 | 23 | 85 | 1.6 | 6.4 | 0.00 | 0.00 | 0.00 | 64 | 1009.6 |
| 20260905173541 | 23 | 115 | 1.6 | 8.0 | 0.00 | 0.00 | 0.00 | 67 | 1009.4 |
| 20260905173046 | 23 | 76 | 3.2 | 8.0 | 0.00 | 0.00 | 0.00 | 68 | 1009.4 |
| 20260905172539 | 23 | 107 | 3.2 | 11.3 | 0.00 | 0.00 | 0.00 | 68 | 1009.4 |
| 20260905172037 | 23 | 344 | 3.2 | 11.3 | 0.00 | 0.00 | 0.00 | 68 | 1009.4 |
| 20260905171538 | 22 | 69 | 3.2 | 12.9 | 0.00 | 0.00 | 0.00 | 67 | 1009.3 |
| 20260905171037 | 22 | 69 | 4.8 | 12.9 | 0.00 | 0.00 | 0.00 | 67 | 1009.4 |
| 20260905170535 | 22 | 82 | 1.6 | 8.0 | 0.00 | 0.00 | 0.00 | 66 | 1009.5 |
| 20260905170036 | 23 | 47 | 0.0 | 11.3 | 0.00 | 0.00 | 0.00 | 65 | 1009.4 |
| 20260905165533 | 23 | 81 | 1.6 | 14.5 | 0.00 | 0.00 | 0.00 | 66 | 1009.4 |
| 20260905165035 | 23 | 103 | 1.6 | 11.3 | 0.00 | 0.00 | 0.00 | 67 | 1009.4 |
| 20260905164531 | 22 | 222 | 1.6 | 8.0 | 0.00 | 0.00 | 0.00 | 67 | 1009.3 |
| 20260905164033 | 22 | 96 | 1.6 | 4.8 | 0.00 | 0.00 | 0.00 | 69 | 1009.4 |
| 20260905163528 | 22 | 61 | 1.6 | 6.4 | 0.00 | 0.00 | 0.00 | 72 | 1009.3 |
| 20260905163027 | 22 | 96 | 0.0 | 9.7 | 0.00 | 0.00 | 0.00 | 69 | 1009.4 |
| 20260905162526 | 21 | 62 | 4.8 | 9.7 | 0.00 | 0.00 | 0.00 | 69 | 1009.4 |
| 20260905162024 | 21 | 70 | 3.2 | 11.3 | 0.00 | 0.00 | 0.00 | 68 | 1009.5 |
| 20260905161524 | 21 | 176 | 0.0 | 12.9 | 0.00 | 0.00 | 0.00 | 70 | 1009.5 |
| 20260905161028 | 21 | 143 | 1.6 | 12.9 | 0.00 | 0.00 | 0.00 | 71 | 1009.6 |
| 20260905160523 | 21 | 109 | 1.6 | 8.0 | 0.00 | 0.00 | 0.00 | 72 | 1009.6 |
| 20260905160022 | 21 | 318 | 3.2 | 11.3 | 0.00 | 0.00 | 0.00 | 70 | 1009.6 |
| 20260905155522 | 21 | 261 | 1.6 | 11.3 | 0.00 | 0.00 | 0.00 | 72 | 1009.6 |
| 20260905155020 | 21 | 273 | 1.6 | 11.3 | 0.00 | 0.00 | 0.00 | 73 | 1009.7 |
| 20260905154520 | 21 | 112 | 1.6 | 4.8 | 0.00 | 0.00 | 0.00 | 74 | 1009.6 |
| 20260905154019 | 21 | 117 | 1.6 | 4.8 | 0.00 | 0.00 | 0.00 | 73 | 1009.6 |
| 20260905153518 | 21 | 55 | 1.6 | 8.0 | 0.00 | 0.00 | 0.00 | 75 | 1009.6 |
| 20260905153025 | 21 | 349 | 3.2 | 8.0 | 0.00 | 0.00 | 0.00 | 73 | 1009.7 |
| 20260905152518 | 21 | 101 | 0.0 | 8.0 | 0.00 | 0.00 | 0.00 | 75 | 1009.7 |
| 20260905152015 | 21 | 97 | 3.2 | 8.0 | 0.00 | 0.00 | 0.00 | 76 | 1009.7 |
| 20260905151514 | 20 | 56 | 1.6 | 6.4 | 0.00 | 0.00 | 0.00 | 76 | 1009.7 |
| 20260905151016 | 20 | 90 | 1.6 | 6.4 | 0.00 | 0.00 | 0.00 | 77 | 1009.8 |
| 20260905150516 | 20 | 138 | 1.6 | 9.7 | 0.00 | 0.00 | 0.00 | 76 | 1009.7 |
| 20260905150019 | 20 | 22 | 1.6 | 12.9 | 0.00 | 0.00 | 0.00 | 76 | 1009.7 |
| 20260905145511 | 20 | 355 | 3.2 | 12.9 | 0.00 | 0.00 | 0.00 | 77 | 1009.7 |
| 20260905145009 | 20 | 79 | 1.6 | 8.0 | 0.00 | 0.00 | 0.00 | 79 | 1009.7 |
| 20260905144513 | 20 | 94 | 0.0 | 8.0 | 0.00 | 0.00 | 0.00 | 80 | 1009.7 |
| 20260905144007 | 20 | 343 | 1.6 | 6.4 | 0.00 | 0.00 | 0.00 | 81 | 1009.7 |
| 20260905143506 | 20 | 111 | 0.0 | 8.0 | 0.00 | 0.00 | 0.00 | 81 | 1009.7 |
| 20260905143006 | 20 | 321 | 0.0 | 8.0 | 0.00 | 0.00 | 0.00 | 80 | 1009.7 |
| 20260905142504 | 19 | 344 | 3.2 | 8.0 | 0.00 | 0.00 | 0.00 | 81 | 1009.7 |
| 20260905142004 | 19 | 275 | 1.6 | 9.7 | 0.00 | 0.00 | 0.00 | 81 | 1009.8 |
| 20260905141504 | 19 | 298 | 4.8 | 9.7 | 0.00 | 0.00 | 0.00 | 82 | 1009.8 |
| 20260905141004 | 19 | 256 | 1.6 | 6.4 | 0.00 | 0.00 | 0.00 | 83 | 1009.8 |
| 20260905140601 | 19 | 343 | 0.0 | 8.0 | 0.00 | 0.00 | 0.00 | 83 | 1009.7 |
| 20260905135559 | 18 | 257 | 1.6 | 8.0 | 0.00 | 0.00 | 0.00 | 84 | 1009.6 |
| 20260905135057 | 18 | 281 | 3.2 | 6.4 | 0.00 | 0.00 | 0.00 | 86 | 1009.7 |
| 20260905134557 | 18 | 296 | 0.0 | 6.4 | 0.00 | 0.00 | 0.00 | 86 | 1009.7 |
| 20260905134059 | 18 | 252 | 1.6 | 6.4 | 0.00 | 0.00 | 0.00 | 86 | 1009.6 |
| 20260905133553 | 18 | 10 | 0.0 | 8.0 | 0.00 | 0.00 | 0.00 | 86 | 1009.5 |
| 20260905133054 | 18 | 284 | 4.8 | 8.0 | 0.00 | 0.00 | 0.00 | 87 | 1009.5 |
| 20260905132552 | 17 | 234 | 1.6 | 6.4 | 0.00 | 0.00 | 0.00 | 87 | 1009.4 |
| 20260905132051 | 17 | 236 | 3.2 | 8.0 | 0.00 | 0.00 | 0.00 | 87 | 1009.4 |
| 20260905131601 | 17 | 223 | 4.8 | 8.0 | 0.00 | 0.00 | 0.00 | 87 | 1009.3 |
| 20260905131049 | 17 | 215 | 1.6 | 6.4 | 0.00 | 0.00 | 0.00 | 88 | 1009.3 |
| 20260905130549 | 17 | 315 | 3.2 | 6.4 | 0.00 | 0.00 | 0.00 | 88 | 1009.3 |
| 20260905130048 | 17 | 222 | 1.6 | 9.7 | 0.00 | 0.00 | 0.00 | 88 | 1009.2 |
| 20260905125546 | 17 | 295 | 3.2 | 9.7 | 0.00 | 0.00 | 0.00 | 88 | 1009.2 |
| 20260905125046 | 17 | 284 | 3.2 | 6.4 | 0.00 | 0.00 | 0.00 | 89 | 1009.1 |
| 20260905124545 | 17 | 234 | 3.2 | 6.4 | 0.00 | 0.00 | 0.00 | 89 | 1009.1 |
| 20260905124045 | 17 | 257 | 1.6 | 4.8 | 0.00 | 0.00 | 0.00 | 89 | 1009.1 |
| 20260905123543 | 17 | 268 | 0.0 | 8.0 | 0.00 | 0.00 | 0.00 | 89 | 1009.1 |
| 20260905123102 | 16 | 252 | 4.8 | 9.7 | 0.00 | 0.00 | 0.00 | 89 | 1009.0 |
| 20260905122545 | 16 | 291 | 3.2 | 9.7 | 0.00 | 0.00 | 0.00 | 90 | 1008.9 |
| 20260905122043 | 16 | 240 | 3.2 | 9.7 | 0.00 | 0.00 | 0.00 | 90 | 1008.9 |
| 20260905121540 | 16 | 242 | 3.2 | 9.7 | 0.00 | 0.00 | 0.00 | 90 | 1008.8 |
| 20260905121040 | 16 | 298 | 3.2 | 8.0 | 0.00 | 0.00 | 0.00 | 91 | 1008.8 |
| 20260905120540 | 16 | 289 | 4.8 | 11.3 | 0.00 | 0.00 | 0.00 | 91 | 1008.8 |
| 20260905120040 | 16 | 224 | 3.2 | 11.3 | 0.00 | 0.00 | 0.00 | 91 | 1008.7 |
| 20260905115538 | 16 | 290 | 3.2 | 9.7 | 0.00 | 0.00 | 0.00 | 91 | 1008.7 |
| 20260905115041 | 16 | 246 | 3.2 | 11.3 | 0.00 | 0.00 | 0.00 | 92 | 1008.6 |
| 20260905114540 | 16 | 244 | 3.2 | 11.3 | 0.00 | 0.00 | 0.00 | 92 | 1008.6 |
| 20260905114036 | 16 | 280 | 4.8 | 12.9 | 0.00 | 0.00 | 0.00 | 92 | 1008.7 |
| 20260905113537 | 16 | 260 | 4.8 | 12.9 | 0.00 | 0.00 | 0.00 | 92 | 1008.6 |
| 20260905113035 | 16 | 246 | 1.6 | 9.7 | 0.00 | 0.00 | 0.00 | 92 | 1008.6 |
| 20260905112534 | 16 | 288 | 4.8 | 9.7 | 0.00 | 0.00 | 0.00 | 92 | 1008.5 |
| 20260905112033 | 15 | 271 | 3.2 | 9.7 | 0.00 | 0.00 | 0.00 | 92 | 1008.6 |
| 20260905111536 | 15 | 269 | 3.2 | 9.7 | 0.00 | 0.00 | 0.00 | 92 | 1008.6 |
| 20260905111035 | 15 | 265 | 3.2 | 8.0 | 0.00 | 0.00 | 0.00 | 92 | 1008.6 |
| 20260905110536 | 15 | 264 | 3.2 | 8.0 | 0.00 | 0.00 | 0.00 | 92 | 1008.5 |
| 20260905110034 | 15 | 198 | 3.2 | 11.3 | 0.00 | 0.00 | 0.00 | 92 | 1008.4 |
| 20260905105531 | 15 | 236 | 4.8 | 11.3 | 0.00 | 0.00 | 0.00 | 92 | 1008.4 |
| 20260905105031 | 15 | 262 | 3.2 | 12.9 | 0.00 | 0.00 | 0.00 | 92 | 1008.3 |
| 20260905104530 | 15 | 279 | 3.2 | 9.7 | 0.00 | 0.00 | 0.00 | 92 | 1008.3 |
| 20260905104029 | 15 | 321 | 3.2 | 9.7 | 0.00 | 0.00 | 0.00 | 91 | 1008.3 |
| 20260905103529 | 15 | 298 | 1.6 | 6.4 | 0.00 | 0.00 | 0.00 | 91 | 1008.3 |
| 20260905103040 | 15 | 292 | 1.6 | 6.4 | 0.00 | 0.00 | 0.00 | 91 | 1008.3 |
| 20260905102528 | 15 | 238 | 0.0 | 4.8 | 0.00 | 0.00 | 0.00 | 90 | 1008.2 |
| 20260905102029 | 15 | 218 | 0.0 | 6.4 | 0.00 | 0.00 | 0.00 | 90 | 1008.2 |
| 20260905101528 | 15 | 312 | 1.6 | 6.4 | 0.00 | 0.00 | 0.00 | 90 | 1008.1 |
| 20260905101027 | 15 | 290 | 1.6 | 6.4 | 0.00 | 0.00 | 0.00 | 90 | 1008.1 |
| 20260905100527 | 15 | 227 | 1.6 | 8.0 | 0.00 | 0.00 | 0.00 | 89 | 1008.1 |
| 20260905100033 | 15 | 309 | 1.6 | 4.8 | 0.00 | 0.00 | 0.00 | 89 | 1008.1 |
| 20260905095526 | 15 | 261 | 1.6 | 6.4 | 0.00 | 0.00 | 0.00 | 89 | 1008.1 |
| 20260905095027 | 15 | 233 | 3.2 | 6.4 | 0.00 | 0.00 | 0.00 | 89 | 1008.0 |
| 20260905094526 | 15 | 292 | 0.0 | 4.8 | 0.00 | 0.00 | 0.00 | 89 | 1008.0 |
| 20260905094026 | 15 | 292 | 0.0 | 8.0 | 0.00 | 0.00 | 0.00 | 89 | 1008.1 |
| 20260905093525 | 16 | 325 | 1.6 | 9.7 | 0.00 | 0.00 | 0.00 | 89 | 1007.9 |
| 20260905093026 | 16 | 236 | 4.8 | 9.7 | 0.00 | 0.00 | 0.00 | 89 | 1007.9 |
| 20260905092525 | 16 | 256 | 6.4 | 9.7 | 0.00 | 0.00 | 0.00 | 88 | 1008.0 |
| 20260905092025 | 16 | 300 | 3.2 | 9.7 | 0.00 | 0.00 | 0.00 | 88 | 1007.9 |
| 20260905091525 | 16 | 257 | 3.2 | 8.0 | 0.00 | 0.00 | 0.00 | 88 | 1007.9 |
| 20260905091026 | 16 | 284 | 1.6 | 8.0 | 0.00 | 0.00 | 0.00 | 88 | 1007.8 |
| 20260905090524 | 16 | 286 | 1.6 | 8.0 | 0.00 | 0.00 | 0.00 | 88 | 1007.9 |
| 20260905090027 | 16 | 245 | 3.2 | 9.7 | 0.00 | 0.00 | 0.00 | 88 | 1007.7 |
| 20260905085524 | 16 | 314 | 4.8 | 11.3 | 0.00 | 0.00 | 0.00 | 88 | 1007.8 |
| 20260905085025 | 16 | 281 | 1.6 | 12.9 | 0.00 | 0.00 | 0.00 | 88 | 1007.7 |
| 20260905084524 | 16 | 299 | 3.2 | 12.9 | 0.00 | 0.00 | 0.00 | 88 | 1007.7 |
| 20260905084024 | 16 | 265 | 3.2 | 9.7 | 0.00 | 0.00 | 0.00 | 88 | 1007.7 |
| 20260905083526 | 16 | 269 | 3.2 | 11.3 | 0.00 | 0.00 | 0.00 | 88 | 1007.7 |
| 20260905083023 | 16 | 284 | 4.8 | 11.3 | 0.00 | 0.00 | 0.00 | 88 | 1007.7 |
| 20260905082522 | 16 | 305 | 3.2 | 14.5 | 0.00 | 0.00 | 0.00 | 88 | 1007.7 |
| 20260905082022 | 16 | 285 | 6.4 | 14.5 | 0.00 | 0.00 | 0.00 | 88 | 1007.8 |
| 20260905081522 | 16 | 306 | 3.2 | 11.3 | 0.00 | 0.00 | 0.00 | 87 | 1007.8 |
| 20260905081026 | 16 | 217 | 3.2 | 9.7 | 0.00 | 0.00 | 0.00 | 87 | 1007.7 |
| 20260905080521 | 16 | 223 | 4.8 | 12.9 | 0.00 | 0.00 | 0.00 | 87 | 1007.8 |
| 20260905080028 | 16 | 263 | 4.8 | 12.9 | 0.00 | 0.00 | 0.00 | 87 | 1007.7 |
| 20260905075521 | 16 | 269 | 3.2 | 9.7 | 0.00 | 0.00 | 0.00 | 87 | 1007.7 |
| 20260905075020 | 16 | 233 | 3.2 | 8.0 | 0.00 | 0.00 | 0.00 | 87 | 1007.8 |
| 20260905074520 | 16 | 292 | 4.8 | 9.7 | 0.00 | 0.00 | 0.00 | 87 | 1007.8 |
| 20260905074020 | 16 | 306 | 3.2 | 9.7 | 0.00 | 0.00 | 0.00 | 87 | 1007.8 |
| 20260905073520 | 16 | 294 | 3.2 | 9.7 | 0.00 | 0.00 | 0.00 | 87 | 1007.8 |
| 20260905073024 | 16 | 288 | 4.8 | 9.7 | 0.00 | 0.00 | 0.00 | 88 | 1007.8 |
| 20260905072523 | 16 | 248 | 1.6 | 9.7 | 0.00 | 0.00 | 0.00 | 88 | 1007.8 |
| 20260905072020 | 16 | 310 | 3.2 | 8.0 | 0.00 | 0.00 | 0.00 | 89 | 1007.8 |
| 20260905071520 | 16 | 346 | 3.2 | 8.0 | 0.00 | 0.00 | 0.00 | 89 | 1007.8 |
| 20260905071016 | 16 | 270 | 3.2 | 8.0 | 0.00 | 0.00 | 0.00 | 89 | 1007.9 |
| 20260905070516 | 16 | 244 | 3.2 | 11.3 | 0.00 | 0.00 | 0.00 | 90 | 1008.0 |
| 20260905070026 | 16 | 234 | 3.2 | 11.3 | 0.00 | 0.00 | 0.00 | 90 | 1008.0 |
| 20260905065515 | 15 | 294 | 6.4 | 11.3 | 0.00 | 0.00 | 0.00 | 90 | 1008.1 |
| 20260905065015 | 15 | 236 | 3.2 | 12.9 | 0.00 | 0.00 | 0.00 | 90 | 1008.1 |
| 20260905064515 | 15 | 287 | 4.8 | 8.0 | 0.00 | 0.00 | 0.00 | 90 | 1008.1 |
| 20260905064015 | 15 | 304 | 1.6 | 9.7 | 0.00 | 0.00 | 0.00 | 90 | 1008.1 |
| 20260905063519 | 15 | 251 | 3.2 | 9.7 | 0.00 | 0.00 | 0.00 | 90 | 1008.1 |
| 20260905063014 | 15 | 225 | 3.2 | 9.7 | 0.00 | 0.00 | 0.00 | 90 | 1008.1 |
| 20260905062513 | 15 | 301 | 3.2 | 9.7 | 0.00 | 0.00 | 0.00 | 90 | 1008.1 |
| 20260905062012 | 15 | 319 | 3.2 | 9.7 | 0.00 | 0.00 | 0.00 | 89 | 1008.1 |
| 20260905061514 | 15 | 275 | 3.2 | 9.7 | 0.00 | 0.00 | 0.00 | 89 | 1008.2 |
| 20260905061017 | 15 | 257 | 3.2 | 6.4 | 0.00 | 0.00 | 0.00 | 89 | 1008.2 |
| 20260905060511 | 15 | 240 | 1.6 | 6.4 | 0.00 | 0.00 | 0.00 | 89 | 1008.2 |
| 20260905060033 | 15 | 285 | 3.2 | 6.4 | 0.00 | 0.00 | 0.00 | 88 | 1008.4 |
| 20260905055510 | 15 | 241 | 0.0 | 3.2 | 0.00 | 0.00 | 0.00 | 88 | 1008.3 |
| 20260905055013 | 15 | 241 | 0.0 | 1.6 | 0.00 | 0.00 | 0.00 | 88 | 1008.3 |
| 20260905054510 | 15 | 241 | 0.0 | 3.2 | 0.00 | 0.00 | 0.00 | 88 | 1008.3 |
| 20260905054009 | 16 | 241 | 0.0 | 3.2 | 0.00 | 0.00 | 0.00 | 88 | 1008.3 |
| 20260905053508 | 16 | 241 | 0.0 | 4.8 | 0.00 | 0.00 | 0.00 | 88 | 1008.3 |
| 20260905053008 | 16 | 241 | 1.6 | 4.8 | 0.00 | 0.00 | 0.00 | 88 | 1008.4 |
| 20260905052507 | 16 | 241 | 3.2 | 4.8 | 0.00 | 0.00 | 0.00 | 88 | 1008.4 |
| 20260905052012 | 16 | 241 | 0.0 | 4.8 | 0.00 | 0.00 | 0.00 | 88 | 1008.4 |
| 20260905051508 | 16 | 241 | 0.0 | 4.8 | 0.00 | 0.00 | 0.00 | 88 | 1008.4 |
| 20260905051006 | 16 | 241 | 0.0 | 0.0 | 0.00 | 0.00 | 0.00 | 88 | 1008.4 |
| 20260905050505 | 16 | 241 | 0.0 | 3.2 | 0.00 | 0.00 | 0.00 | 88 | 1008.5 |
| 20260905050006 | 16 | 241 | 0.0 | 3.2 | 0.00 | 0.00 | 0.00 | 88 | 1008.4 |
| 20260905045504 | 16 | 241 | 1.6 | 6.4 | 0.00 | 0.00 | 0.00 | 87 | 1008.5 |
| 20260905045006 | 16 | 241 | 1.6 | 6.4 | 0.00 | 0.00 | 0.00 | 87 | 1008.6 |
| 20260905044508 | 16 | 275 | 1.6 | 8.0 | 0.00 | 0.00 | 0.00 | 87 | 1008.5 |
| 20260905044003 | 16 | 240 | 3.2 | 4.8 | 0.00 | 0.00 | 0.00 | 87 | 1008.3 |
| 20260905043502 | 16 | 258 | 1.6 | 4.8 | 0.00 | 0.00 | 0.00 | 86 | 1008.2 |
| 20260905043112 | 16 | 258 | 1.6 | 4.8 | 0.00 | 0.00 | 0.00 | 86 | 1008.4 |
| 20260905042559 | 16 | 257 | 0.0 | 3.2 | 0.00 | 0.00 | 0.00 | 86 | 1008.4 |
| 20260905042059 | 16 | 257 | 1.6 | 3.2 | 0.00 | 0.00 | 0.00 | 85 | 1008.5 |
| 20260905041558 | 16 | 257 | 0.0 | 3.2 | 0.00 | 0.00 | 0.00 | 85 | 1008.6 |
| 20260905041100 | 17 | 258 | 0.0 | 1.6 | 0.00 | 0.00 | 0.00 | 85 | 1008.7 |
| 20260905040556 | 17 | 257 | 0.0 | 1.6 | 0.00 | 0.00 | 0.00 | 85 | 1008.6 |
| 20260905040056 | 17 | 257 | 0.0 | 1.6 | 0.00 | 0.00 | 0.00 | 84 | 1008.5 |
| 20260905035556 | 17 | 257 | 0.0 | 0.0 | 0.00 | 0.00 | 0.00 | 84 | 1008.5 |
| 20260905035055 | 17 | 258 | 0.0 | 0.0 | 0.00 | 0.00 | 0.00 | 84 | 1008.3 |
| 20260905034600 | 17 | 257 | 0.0 | 1.6 | 0.00 | 0.00 | 0.00 | 84 | 1008.3 |
| 20260905034055 | 17 | 257 | 0.0 | 3.2 | 0.00 | 0.00 | 0.00 | 84 | 1008.3 |
| 20260905033554 | 17 | 257 | 0.0 | 3.2 | 0.00 | 0.00 | 0.00 | 84 | 1008.4 |
| 20260905033053 | 17 | 257 | 1.6 | 6.4 | 0.00 | 0.00 | 0.00 | 84 | 1008.4 |
| 20260905032555 | 17 | 260 | 3.2 | 6.4 | 0.00 | 0.00 | 0.00 | 83 | 1008.5 |
| 20260905032051 | 17 | 216 | 1.6 | 4.8 | 0.00 | 0.00 | 0.00 | 83 | 1008.4 |
| 20260905031551 | 17 | 216 | 1.6 | 3.2 | 0.00 | 0.00 | 0.00 | 82 | 1008.5 |
| 20260905031054 | 17 | 216 | 0.0 | 3.2 | 0.00 | 0.00 | 0.00 | 82 | 1008.4 |
| 20260905030553 | 17 | 216 | 0.0 | 0.0 | 0.00 | 0.00 | 0.00 | 81 | 1008.5 |
| 20260905030056 | 17 | 216 | 0.0 | 1.6 | 0.00 | 0.00 | 0.00 | 81 | 1008.6 |
| 20260905025552 | 17 | 216 | 0.0 | 1.6 | 0.00 | 0.00 | 0.00 | 81 | 1008.5 |
| 20260905025051 | 17 | 216 | 0.0 | 3.2 | 0.00 | 0.00 | 0.00 | 81 | 1008.6 |
| 20260905024550 | 18 | 219 | 0.0 | 3.2 | 0.00 | 0.00 | 0.00 | 80 | 1008.6 |
| 20260905024050 | 18 | 216 | 0.0 | 3.2 | 0.00 | 0.00 | 0.00 | 80 | 1008.6 |
| 20260905023549 | 18 | 216 | 0.0 | 1.6 | 0.00 | 0.00 | 0.00 | 80 | 1008.6 |
| 20260905023050 | 18 | 216 | 0.0 | 1.6 | 0.00 | 0.00 | 0.00 | 80 | 1008.7 |
| 20260905022548 | 18 | 216 | 0.0 | 0.0 | 0.00 | 0.00 | 0.00 | 80 | 1008.7 |
| 20260905022050 | 18 | 216 | 0.0 | 1.6 | 0.00 | 0.00 | 0.00 | 80 | 1008.7 |
| 20260905021552 | 18 | 216 | 0.0 | 3.2 | 0.00 | 0.00 | 0.00 | 79 | 1008.8 |
| 20260905021051 | 18 | 216 | 0.0 | 3.2 | 0.00 | 0.00 | 0.00 | 79 | 1008.9 |
| 20260905020551 | 18 | 216 | 1.6 | 3.2 | 0.00 | 0.00 | 0.00 | 79 | 1008.8 |
| 20260905020052 | 18 | 216 | 0.0 | 3.2 | 0.00 | 0.00 | 0.00 | 79 | 1008.9 |
| 20260905015547 | 18 | 216 | 0.0 | 1.6 | 0.00 | 0.00 | 0.00 | 79 | 1008.9 |
| 20260905015047 | 18 | 216 | 0.0 | 3.2 | 0.00 | 0.00 | 0.00 | 78 | 1008.9 |
| 20260905014547 | 18 | 216 | 0.0 | 4.8 | 0.00 | 0.00 | 0.00 | 78 | 1008.8 |
| 20260905014047 | 18 | 216 | 1.6 | 4.8 | 0.00 | 0.00 | 0.00 | 77 | 1008.9 |
| 20260905013547 | 19 | 265 | 0.0 | 1.6 | 0.00 | 0.00 | 0.00 | 77 | 1008.9 |
| 20260905013046 | 19 | 265 | 0.0 | 1.6 | 0.00 | 0.00 | 0.00 | 76 | 1009.0 |
| 20260905012546 | 19 | 265 | 0.0 | 0.0 | 0.00 | 0.00 | 0.00 | 75 | 1009.0 |
| 20260905012046 | 19 | 265 | 0.0 | 3.2 | 0.00 | 0.00 | 0.00 | 75 | 1009.0 |
| 20260905011609 | 19 | 265 | 0.0 | 6.4 | 0.00 | 0.00 | 0.00 | 75 | 1008.9 |
| 20260905011045 | 19 | 298 | 0.0 | 6.4 | 0.00 | 0.00 | 0.00 | 74 | 1008.8 |
| 20260905010546 | 19 | 247 | 0.0 | 4.8 | 0.00 | 0.00 | 0.00 | 74 | 1008.9 |
| 20260905010046 | 20 | 247 | 0.0 | 3.2 | 0.00 | 0.00 | 0.00 | 74 | 1008.9 |
| 20260905005545 | 20 | 247 | 0.0 | 3.2 | 0.00 | 0.00 | 0.00 | 74 | 1008.9 |
| 20260905005046 | 20 | 75 | 1.6 | 3.2 | 0.00 | 0.00 | 0.00 | 74 | 1008.8 |
| 20260905004546 | 20 | 355 | 0.0 | 8.0 | 0.00 | 0.00 | 0.00 | 73 | 1008.7 |
| 20260905004045 | 20 | 229 | 0.0 | 9.7 | 0.00 | 0.00 | 0.00 | 73 | 1008.6 |
| 20260905003544 | 20 | 219 | 1.6 | 6.4 | 0.00 | 0.00 | 0.00 | 72 | 1008.6 |
| 20260905003050 | 20 | 219 | 1.6 | 8.0 | 0.00 | 0.00 | 0.00 | 71 | 1008.5 |
| 20260905002545 | 20 | 265 | 3.2 | 11.3 | 0.00 | 0.00 | 0.00 | 71 | 1008.6 |
| 20260905002043 | 20 | 267 | 4.8 | 11.3 | 0.00 | 0.00 | 0.00 | 70 | 1008.5 |
| 20260905001546 | 20 | 306 | 3.2 | 9.7 | 0.00 | 0.00 | 0.00 | 71 | 1008.6 |
| 20260905001042 | 20 | 238 | 3.2 | 6.4 | 0.00 | 0.00 | 0.00 | 70 | 1008.6 |
| 20260905000542 | 20 | 240 | 3.2 | 6.4 | 0.00 | 0.00 | 0.00 | 70 | 1008.6 |
| 20260905000044 | 21 | 227 | 1.6 | 6.4 | 0.00 | 0.00 | 0.00 | 70 | 1008.5 |
| 20260904235542 | 21 | 265 | 3.2 | 6.4 | 0.00 | 0.00 | 0.00 | 69 | 1008.6 |
| 20260904235041 | 21 | 217 | 1.6 | 9.7 | 0.00 | 0.00 | 0.00 | 69 | 1008.5 |
| 20260904234541 | 21 | 268 | 1.6 | 11.3 | 0.00 | 0.00 | 0.00 | 68 | 1008.5 |
| 20260904234041 | 21 | 286 | 6.4 | 11.3 | 0.00 | 0.00 | 0.00 | 67 | 1008.4 |
| 20260904233540 | 21 | 244 | 4.8 | 9.7 | 0.00 | 0.00 | 0.00 | 67 | 1008.3 |
| 20260904233052 | 21 | 254 | 4.8 | 14.5 | 0.00 | 0.00 | 0.00 | 66 | 1008.2 |
| 20260904232539 | 21 | 256 | 4.8 | 14.5 | 0.00 | 0.00 | 0.00 | 66 | 1008.2 |
| 20260904232038 | 21 | 223 | 3.2 | 11.3 | 0.00 | 0.00 | 0.00 | 65 | 1008.2 |
| 20260904231538 | 21 | 309 | 4.8 | 11.3 | 0.00 | 0.00 | 0.00 | 65 | 1008.3 |
| 20260904231038 | 21 | 355 | 3.2 | 11.3 | 0.00 | 0.00 | 0.00 | 66 | 1008.3 |
| 20260904230539 | 22 | 181 | 1.6 | 9.7 | 0.00 | 0.00 | 0.00 | 65 | 1008.2 |
| 20260904230042 | 22 | 309 | 3.2 | 8.0 | 0.00 | 0.00 | 0.00 | 64 | 1008.2 |
| 20260904225537 | 22 | 243 | 3.2 | 8.0 | 0.00 | 0.00 | 0.00 | 64 | 1008.1 |
| 20260904225039 | 22 | 246 | 4.8 | 9.7 | 0.00 | 0.00 | 0.00 | 63 | 1008.1 |
| 20260904224538 | 22 | 341 | 3.2 | 9.7 | 0.00 | 0.00 | 0.00 | 64 | 1008.1 |
| 20260904224037 | 22 | 271 | 3.2 | 9.7 | 0.00 | 0.00 | 0.00 | 64 | 1008.0 |
| 20260904223535 | 22 | 277 | 1.6 | 9.7 | 0.00 | 0.00 | 0.00 | 64 | 1008.1 |
| 20260904223037 | 22 | 299 | 1.6 | 11.3 | 0.00 | 0.00 | 0.00 | 65 | 1008.0 |
| 20260904222535 | 23 | 294 | 1.6 | 11.3 | 0.00 | 0.00 | 0.00 | 63 | 1008.0 |
| 20260904222035 | 23 | 298 | 3.2 | 9.7 | 0.00 | 0.00 | 0.00 | 65 | 1008.0 |
| 20260904221539 | 23 | 284 | 4.8 | 9.7 | 0.00 | 0.00 | 0.00 | 63 | 1008.0 |
| 20260904221035 | 23 | 249 | 3.2 | 9.7 | 0.00 | 0.00 | 0.00 | 62 | 1007.9 |
| 20260904220534 | 23 | 265 | 4.8 | 9.7 | 0.00 | 0.00 | 0.00 | 60 | 1007.9 |
| 20260904220037 | 24 | 244 | 3.2 | 8.0 | 0.00 | 0.00 | 0.00 | 60 | 1007.9 |
| 20260904215538 | 24 | 328 | 3.2 | 16.1 | 0.00 | 0.00 | 0.00 | 61 | 1007.9 |
| 20260904215034 | 24 | 200 | 1.6 | 16.1 | 0.00 | 0.00 | 0.00 | 59 | 1007.9 |
| 20260904214534 | 25 | 272 | 4.8 | 12.9 | 0.00 | 0.00 | 0.00 | 57 | 1007.9 |
| 20260904214035 | 25 | 290 | 4.8 | 17.7 | 0.00 | 0.00 | 0.00 | 56 | 1007.8 |
| 20260904213535 | 25 | 235 | 6.4 | 17.7 | 0.00 | 0.00 | 0.00 | 57 | 1007.9 |
| 20260904213033 | 25 | 241 | 1.6 | 16.1 | 0.00 | 0.00 | 0.00 | 61 | 1007.9 |
| 20260904212533 | 25 | 227 | 3.2 | 8.0 | 0.00 | 0.00 | 0.00 | 59 | 1007.9 |
| 20260904212032 | 25 | 232 | 3.2 | 8.0 | 0.00 | 0.00 | 0.00 | 59 | 1007.9 |
| 20260904211532 | 25 | 251 | 1.6 | 8.0 | 0.00 | 0.00 | 0.00 | 60 | 1007.9 |
| 20260904211032 | 25 | 304 | 1.6 | 12.9 | 0.00 | 0.00 | 0.00 | 58 | 1007.9 |
| 20260904210532 | 25 | 271 | 3.2 | 9.7 | 0.00 | 0.00 | 0.00 | 58 | 1007.9 |
| 20260904210032 | 25 | 311 | 4.8 | 9.7 | 0.00 | 0.00 | 0.00 | 57 | 1007.8 |
| 20260904205536 | 25 | 284 | 3.2 | 9.7 | 0.00 | 0.00 | 0.00 | 58 | 1007.8 |
| 20260904205033 | 25 | 61 | 1.6 | 9.7 | 0.00 | 0.00 | 0.00 | 56 | 1007.8 |
| 20260904204533 | 26 | 250 | 3.2 | 12.9 | 0.00 | 0.00 | 0.00 | 55 | 1007.9 |
| 20260904204031 | 26 | 323 | 6.4 | 14.5 | 0.00 | 0.00 | 0.00 | 54 | 1007.9 |
| 20260904203530 | 26 | 271 | 6.4 | 14.5 | 0.00 | 0.00 | 0.00 | 56 | 1008.0 |
| 20260904203040 | 26 | 315 | 6.4 | 12.9 | 0.00 | 0.00 | 0.00 | 55 | 1007.9 |
| 20260904202530 | 26 | 313 | 3.2 | 14.5 | 0.00 | 0.00 | 0.00 | 56 | 1007.9 |
| 20260904202029 | 26 | 247 | 4.8 | 14.5 | 0.00 | 0.00 | 0.00 | 55 | 1007.9 |
| 20260904201536 | 26 | 252 | 4.8 | 14.5 | 0.00 | 0.00 | 0.00 | 56 | 1007.9 |
| 20260904201032 | 26 | 360 | 1.6 | 16.1 | 0.00 | 0.00 | 0.00 | 58 | 1007.9 |
| 20260904200529 | 26 | 285 | 6.4 | 16.1 | 0.00 | 0.00 | 0.00 | 57 | 1007.8 |
| 20260904200031 | 26 | 315 | 3.2 | 11.3 | 0.00 | 0.00 | 0.00 | 60 | 1007.8 |
| 20260904195528 | 26 | 257 | 6.4 | 14.5 | 0.00 | 0.00 | 0.00 | 57 | 1007.9 |
| 20260904195026 | 26 | 313 | 6.4 | 14.5 | 0.00 | 0.00 | 0.00 | 59 | 1007.9 |
| 20260904194528 | 26 | 237 | 4.8 | 9.7 | 0.00 | 0.00 | 0.00 | 58 | 1007.9 |
| 20260904194030 | 26 | 237 | 3.2 | 17.7 | 0.00 | 0.00 | 0.00 | 55 | 1007.9 |
| 20260904193523 | 26 | 261 | 8.0 | 17.7 | 0.00 | 0.00 | 0.00 | 55 | 1008.0 |
| 20260904193025 | 26 | 228 | 8.0 | 17.7 | 0.00 | 0.00 | 0.00 | 54 | 1008.0 |
| 20260904192527 | 26 | 282 | 8.0 | 17.7 | 0.00 | 0.00 | 0.00 | 53 | 1008.0 |
| 20260904192025 | 26 | 261 | 9.7 | 17.7 | 0.00 | 0.00 | 0.00 | 57 | 1008.0 |
| 20260904191524 | 26 | 310 | 3.2 | 19.3 | 0.00 | 0.00 | 0.00 | 56 | 1008.0 |
| 20260904191025 | 26 | 276 | 8.0 | 19.3 | 0.00 | 0.00 | 0.00 | 54 | 1008.1 |
| 20260904190522 | 26 | 355 | 8.0 | 20.9 | 0.00 | 0.00 | 0.00 | 56 | 1008.0 |
| 20260904190020 | 26 | 360 | 8.0 | 20.9 | 0.00 | 0.00 | 0.00 | 56 | 1008.0 |